Weather History for Lacon, IL

Change the Weather History Date:

Tuesday, February 19, 2013

  Actual Average (KPIA) Record (KPIA)
Temperature  
Mean Temperature 17 °F 31 °F  
Max Temperature 22 °F 39 °F 71 °F (1930)
Min Temperature 11 °F 22 °F -12 °F (1979)
Degree Days  
Heating Degree Days 48 34  
Month to date heating degree days 703  
Since 1 July heating degree days 4224  
Cooling Degree Days 0 0  
Month to date cooling degree days 0  
Year to date cooling degree days 0  
Moisture  
Dew Point 8 °F    
Average Humidity 69    
Maximum Humidity 79    
Minimum Humidity 57    
Precipitation  
Precipitation 0.15 in 0.07 in 1.36 in (1891)
Month to date precipitation 1.12  
Year to date precipitation 2.90  
Snow  
Snow 0.00 in 0.20 in 5.00 in (1938)
Month to date snowfall 4.5  
Since 1 July snowfall 19.6  
Snow Depth -    
Sea Level Pressure  
Sea Level Pressure 30.01 in    
Wind  
Wind Speed 17 mph (West)    
Max Wind Speed 24 mph    
Max Gust Speed 38 mph    
Visibility 9 miles    
Events Snow    
T = Trace of Precipitation, MM = Missing Value Source: NWS Daily Summary

Daily Weather History Graph

Daily Weather History Graph

Search for Another Location

Airport:

Trip Planner

Search our weather history database for the weather conditions in past years. The results will help you decide how hot, cold, wet, or windy it might be!

Date:

Astronomy

Feb. 19, 2013 Rise Set
Actual Time 6:46 AM CST 5:37 PM CST
Civil Twilight 6:18 AM CST 6:05 PM CST
Nautical Twilight 5:46 AM CST 6:37 PM CST
Astronomical Twilight 5:14 AM CST 7:09 PM CST
Moon 12:07 PM CST (2/19) 2:19 AM CST (2/19)
Length of Visible Light 11h 46m
Length of Day
10h 51m
Waxing Gibbous, 67% of the Moon is Illuminated
Feb 19
Waxing Gibbous
Feb 25
Full
Mar 4
Last Quarter
Mar 11
New
Mar 19
First Quarter

Hourly Weather History & Observations

Time (CST) Temp. Windchill Dew Point Humidity Pressure Visibility Wind Dir Wind Speed Gust Speed Precip Events Conditions
12:15 AM 22.5 °F 8.9 °F 15.4 °F 74% 29.77 in 10.0 mi West 16.1 mph 34.5 mph N/A   Overcast
12:35 AM 21.9 °F 7.3 °F 14.9 °F 74% 29.78 in 10.0 mi West 18.4 mph 31.1 mph N/A   Overcast
12:55 AM 21.2 °F 5.2 °F 14.0 °F 74% 29.78 in 10.0 mi West 21.9 mph 31.1 mph N/A   Overcast
1:15 AM 20.5 °F 6.4 °F 13.3 °F 74% 29.79 in 10.0 mi West 16.1 mph 34.5 mph N/A   Overcast
1:35 AM 20.1 °F 4.2 °F 12.9 °F 74% 29.80 in 10.0 mi West 20.7 mph 26.5 mph N/A   Overcast
1:55 AM 20.1 °F 7.5 °F 13.8 °F 77% 29.80 in 10.0 mi West 12.7 mph 26.5 mph N/A Snow Light Snow
2:15 AM 20.1 °F 8.1 °F 14.4 °F 78% 29.81 in 7.0 mi West 11.5 mph 24.2 mph N/A Snow Light Snow
2:35 AM 19.4 °F 4.1 °F 11.8 °F 72% 29.81 in 10.0 mi WSW 18.4 mph 31.1 mph N/A   Overcast
2:55 AM 19.0 °F 3.6 °F 11.5 °F 72% 29.82 in 10.0 mi West 18.4 mph 28.8 mph N/A Snow Light Snow
3:15 AM 18.5 °F 3.8 °F 11.1 °F 73% 29.82 in 10.0 mi West 16.1 mph 27.6 mph N/A   Overcast
3:35 AM 18.9 °F 4.8 °F 11.8 °F 74% 29.81 in 10.0 mi WSW 15.0 mph 27.6 mph N/A Snow Light Snow
3:55 AM 19.2 °F 3.8 °F 12.7 °F 76% 29.82 in 7.0 mi WSW 18.4 mph 28.8 mph N/A Snow Light Snow
4:15 AM 18.0 °F 3.1 °F 12.0 °F 78% 29.83 in 4.0 mi West 16.1 mph 32.2 mph N/A Snow Light Snow
4:35 AM 17.4 °F -0.2 °F 9.9 °F 72% 29.84 in 10.0 mi West 23.0 mph 38.0 mph N/A Snow Light Snow
4:55 AM 16.0 °F -2.5 °F 7.3 °F 69% 29.86 in 10.0 mi West 24.2 mph 36.8 mph N/A   Overcast
5:15 AM 15.8 °F -1.5 °F 8.1 °F 72% 29.87 in 10.0 mi West 20.7 mph 31.1 mph N/A   Overcast
5:35 AM 15.8 °F -0.6 °F 8.6 °F 73% 29.87 in 10.0 mi West 18.4 mph 28.8 mph N/A   Overcast
5:55 AM 16.3 °F 1.6 °F 9.1 °F 73% 29.87 in 10.0 mi WSW 15.0 mph 26.5 mph N/A   Overcast
6:15 AM 16.5 °F 1.8 °F 10.2 °F 76% 29.87 in 10.0 mi West 15.0 mph 25.3 mph N/A Snow Light Snow
6:35 AM 16.5 °F 0.3 °F 11.1 °F 79% 29.88 in 4.0 mi WSW 18.4 mph 25.3 mph N/A Snow Light Snow
6:55 AM 14.5 °F -1.8 °F 7.3 °F 73% 29.90 in 10.0 mi WSW 17.3 mph 26.5 mph N/A   Overcast
7:15 AM 12.9 °F -5.3 °F 4.8 °F 70% 29.92 in 10.0 mi West 20.7 mph 29.9 mph N/A   Mostly Cloudy
7:35 AM 12.9 °F -6.5 °F 5.5 °F 72% 29.93 in 10.0 mi WSW 24.2 mph 28.8 mph N/A   Mostly Cloudy
7:55 AM 12.9 °F -0.9 °F 6.1 °F 74% 29.93 in 7.0 mi West 11.5 mph 27.6 mph N/A   Mostly Cloudy
8:15 AM 13.5 °F -2.7 °F 6.6 °F 74% 29.94 in 7.0 mi West 16.1 mph 27.6 mph N/A   Overcast
8:35 AM 13.1 °F -1.4 °F 6.6 °F 75% 29.96 in 4.0 mi WSW 12.7 mph 26.5 mph N/A Snow Light Snow
8:55 AM 12.4 °F -4.6 °F 4.3 °F 70% 29.97 in 7.0 mi WSW 17.3 mph 33.4 mph N/A   Overcast
9:15 AM 12.6 °F -4.4 °F 3.9 °F 68% 29.97 in 10.0 mi West 17.3 mph 29.9 mph N/A   Overcast
9:35 AM 12.6 °F -5.8 °F 3.7 °F 68% 29.99 in 10.0 mi West 20.7 mph 36.8 mph N/A   Overcast
9:55 AM 12.6 °F -7.0 °F 3.9 °F 68% 30.00 in 10.0 mi WSW 24.2 mph 35.7 mph N/A   Overcast
10:15 AM 12.2 °F -5.8 °F 4.1 °F 70% 30.01 in 5.0 mi WSW 19.6 mph 34.5 mph N/A   Haze
10:35 AM 12.6 °F -4.9 °F 3.6 °F 67% 30.02 in 10.0 mi West 18.4 mph 28.8 mph N/A   Overcast
10:55 AM 13.3 °F -2.9 °F 5.5 °F 71% 30.03 in 7.0 mi West 16.1 mph 28.8 mph N/A   Overcast
11:15 AM 13.1 °F -5.9 °F 4.5 °F 68% 30.03 in 10.0 mi WSW 23.0 mph 32.2 mph N/A   Overcast
11:35 AM 13.6 °F -4.8 °F 5.5 °F 70% 30.03 in 10.0 mi West 21.9 mph 28.8 mph N/A   Overcast
11:55 AM 13.6 °F -3.5 °F 5.2 °F 69% 30.03 in 10.0 mi West 18.4 mph 29.9 mph N/A   Overcast
12:15 PM 14.0 °F -4.3 °F 4.8 °F 67% 30.03 in 10.0 mi WSW 21.9 mph 29.9 mph N/A   Overcast
12:35 PM 14.9 °F -2.3 °F 6.1 °F 68% 30.04 in 10.0 mi West 19.6 mph 27.6 mph N/A   Overcast
12:55 PM 15.3 °F -0.9 °F 6.3 °F 68% 30.04 in 10.0 mi West 17.3 mph 33.4 mph N/A   Overcast
1:15 PM 16.9 °F -0.1 °F 7.5 °F 67% 30.04 in 10.0 mi West 20.7 mph 32.2 mph N/A   Overcast
1:35 PM 17.2 °F -0.4 °F 8.1 °F 67% 30.05 in 10.0 mi West 23.0 mph 32.2 mph N/A   Overcast
1:55 PM 18.1 °F 1.6 °F 7.7 °F 64% 30.05 in 10.0 mi WSW 20.7 mph 31.1 mph N/A   Overcast
2:15 PM 19.0 °F 2.7 °F 9.7 °F 67% 30.04 in 10.0 mi West 20.7 mph 27.6 mph N/A   Overcast
2:35 PM 19.9 °F 6.2 °F 10.8 °F 68% 30.05 in 10.0 mi West 15.0 mph 23.0 mph N/A   Overcast
2:55 PM 19.8 °F 4.1 °F 9.7 °F 65% 30.06 in 10.0 mi West 19.6 mph 28.8 mph N/A   Mostly Cloudy
3:15 PM 21.6 °F 7.3 °F 10.2 °F 62% 30.07 in 10.0 mi West 17.3 mph 27.6 mph N/A   Scattered Clouds
3:35 PM 21.2 °F 5.2 °F 9.1 °F 60% 30.08 in 10.0 mi West 21.9 mph 31.1 mph N/A   Scattered Clouds
3:55 PM 22.5 °F 8.9 °F 10.8 °F 61% 30.09 in 10.0 mi West 16.1 mph 26.5 mph N/A   Mostly Cloudy
4:15 PM 21.9 °F 6.2 °F 8.8 °F 57% 30.09 in 10.0 mi West 21.9 mph 34.5 mph N/A   Scattered Clouds
4:35 PM 21.7 °F 9.0 °F 9.1 °F 58% 30.10 in 10.0 mi West 13.8 mph 31.1 mph N/A   Scattered Clouds
4:55 PM 22.1 °F 7.2 °F 10.2 °F 60% 30.10 in 10.0 mi West 19.6 mph 27.6 mph N/A   Clear
5:15 PM 21.7 °F 8.0 °F 8.4 °F 57% 30.11 in 10.0 mi West 16.1 mph 29.9 mph N/A   Clear
6:35 PM 20.1 °F 7.5 °F 9.3 °F 63% 30.14 in 10.0 mi West 12.7 mph 18.4 mph N/A   Clear
6:55 PM 19.9 °F 6.7 °F 8.2 °F 61% 30.15 in 10.0 mi West 13.8 mph 21.9 mph N/A   Clear
7:35 PM 19.0 °F 4.5 °F 8.4 °F 63% 30.16 in 10.0 mi West 16.1 mph 23.0 mph N/A   Clear
7:55 PM 18.5 °F 4.9 °F 8.6 °F 65% 30.16 in 10.0 mi West 13.8 mph 18.4 mph N/A   Clear
8:15 PM 18.1 °F 5.0 °F 8.6 °F 66% 30.17 in 10.0 mi West 12.7 mph 20.7 mph N/A   Clear
8:35 PM 17.6 °F 5.0 °F 8.6 °F 68% 30.18 in 10.0 mi West 11.5 mph - N/A   Scattered Clouds
8:55 PM 17.2 °F 3.3 °F 7.5 °F 66% 30.19 in 10.0 mi West 13.8 mph 26.5 mph N/A   Clear
9:15 PM 16.9 °F 4.1 °F 6.8 °F 65% 30.20 in 10.0 mi West 11.5 mph 19.6 mph N/A   Clear
9:35 PM 16.5 °F 4.3 °F 7.2 °F 67% 30.20 in 10.0 mi West 10.4 mph 20.7 mph N/A   Clear
9:55 PM 16.3 °F 2.7 °F 7.2 °F 67% 30.21 in 10.0 mi WNW 12.7 mph - N/A   Clear
10:15 PM 15.4 °F -1.1 °F 6.4 °F 68% 30.21 in 10.0 mi WNW 18.4 mph 24.2 mph N/A   Clear
10:35 PM 14.0 °F -0.2 °F 6.8 °F 73% 30.22 in 10.0 mi WNW 12.7 mph 18.4 mph N/A   Clear
10:55 PM 13.3 °F -1.1 °F 5.7 °F 72% 30.24 in 10.0 mi NW 12.7 mph 19.6 mph N/A   Clear
11:15 PM 12.7 °F -1.8 °F 5.0 °F 71% 30.25 in 10.0 mi WNW 12.7 mph 20.7 mph N/A   Clear
11:35 PM 12.0 °F -4.0 °F 4.5 °F 72% 30.25 in 10.0 mi WNW 15.0 mph 21.9 mph N/A   Clear
11:55 PM 11.3 °F -3.6 °F 4.1 °F 73% 30.26 in 10.0 mi WNW 12.7 mph - N/A   Clear